Regional Weather Roundup
Issued by NWS

Home | Current Version | Previous Version | Text Only | Print | Product List | Glossary On
Versions: 1 2 3 4 5 6 7 8 9 10 11 12 13 14 15 16 17 18 19 20 21 22 23 24 25 26 27 28 29 30 31 32 33 34 35 36 37 38 39 40 41 42 43 44 45 46 47 48 49 50
000
ASUS44 KFWD 170010
RWRTX
NORTH TEXAS HOURLY WEATHER ROUNDUP
NATIONAL WEATHER SERVICE FORT WORTH TX
700 PM CDT TUE SEP 16 2014

NOTE: "FAIR" INDICATES FEW OR NO CLOUDS BELOW 12,000 FEET WITH NO
SIGNIFICANT WEATHER AND/OR OBSTRUCTIONS TO VISIBILITY.

TXZ118-119-170100-
DALLAS/FORT WORTH METROPLEX

CITY           SKY/WX    TMP DP  RH WIND       PRES   REMARKS
DFW AIRPORT    MOCLDY    89  65  44 E5        29.97S HX  91
6HR MIN TEMP:  86; 6HR MAX TEMP:  92;

DALLAS LOVE    MOCLDY    89  65  44 E5        29.97S HX  91
6HR MIN TEMP:  85; 6HR MAX TEMP:  92;

FTW MEACHAM    PTCLDY    88  66  48 SE6       29.97S HX  90
6HR MIN TEMP:  86; 6HR MAX TEMP:  92;

DAL-EXECUTIVE  CLEAR     89  66  46 E7        29.97S HX  91
6HR MIN TEMP:  87; 6HR MAX TEMP:  92;

FTW-ALLIANCE   MOCLDY    88  65  46 E8        29.96F HX  90
6HR MIN TEMP:  86; 6HR MAX TEMP:  91;

FTW-NAS-JRB    PTCLDY    91  65  41 E6        30.01S HX  93
6HR MIN TEMP:  90; 6HR MAX TEMP:  95;

FTW-SPINKS     PTCLDY    88  66  48 E8        29.99S HX  90
ARLINGTON      CLEAR     87  66  49 SE6       29.98R
6HR MIN TEMP:  85; 6HR MAX TEMP:  90;

GRAND PRAIRIE  CLEAR     88  63  42 MISG      29.99S
ADDISON        MOCLDY    88  64  45 E6        29.98S
MESQUITE       CLEAR     90  63  40 CALM      29.98R HX  90
LANCASTER      PTCLDY    87  65  47 SE3       29.98S
6HR MIN TEMP:  85; 6HR MAX TEMP:  90;

$$

TXZ091>094-102>105-117-120-121-131>134-170100-
NORTH CENTRAL TEXAS

CITY           SKY/WX    TMP DP  RH WIND       PRES   REMARKS
SHRMAN/DENISON CLOUDY    85  69  57 E3        30.00S
6HR MIN TEMP:  84; 6HR MAX TEMP:  89;

GAINESVILLE    MOCLDY    84  68  57 SE5       30.01S
6HR MIN TEMP:  83; 6HR MAX TEMP:  87;

BOWIE          PTCLDY    83  68  60 CALM      30.00F
6HR MIN TEMP:  83; 6HR MAX TEMP:  88;

BRIDGEPORT     PTCLDY    85  65  50 NE7       30.00S
6HR MIN TEMP:  85; 6HR MAX TEMP:  88;

DECATUR        PTCLDY    84  65  52 NE5       30.00S
6HR MIN TEMP:  83; 6HR MAX TEMP:  86;

DENTON         PTCLDY    87  65  47 E5        29.97F
6HR MIN TEMP:  85; 6HR MAX TEMP:  90;

MCKINNEY       PTCLDY    88  67  49 E5        29.98S HX  91
6HR MIN TEMP:  86; 6HR MAX TEMP:  91;

GREENVILLE     PTCLDY    86  66  51 CALM      29.98S
ROCKWALL       PTCLDY    87  68  54 E6        29.97S HX  90
6HR MIN TEMP:  86; 6HR MAX TEMP:  90;

TERRELL        PTCLDY    88  66  48 E7        29.98S HX  90
6HR MIN TEMP:  88; 6HR MAX TEMP:  92;

WAXAHACHIE     CLEAR     86  64  47 E6        29.99R
6HR MIN TEMP:  85; 6HR MAX TEMP:  92;

CLEBURNE       CLEAR     86  70  58 SE8       30.01R HX  90
GRANBURY       PTCLDY    88  67  49 E7        29.99S HX  91
6HR MIN TEMP:  87; 6HR MAX TEMP:  92;

$$

TXZ083>090-098>101-113>116-127>130-139>142-154-155-170100-
WESTERN NORTH TEXAS

CITY           SKY/WX    TMP DP  RH WIND       PRES   REMARKS
WICHITA FALLS  MOCLDY    85  68  56 SE7       29.98F
6HR MIN TEMP:  85; 6HR MAX TEMP:  89;

ABILENE        CLOUDY    87  63  44 W5        30.03F
6HR MIN TEMP:  84; 6HR MAX TEMP:  89;

ABILENE-DYESS  CLOUDY    85  64  48 W2        30.02F
6HR MIN TEMP:  82; 6HR MAX TEMP:  88;

BRECKENRIDGE   CLOUDY    87  63  44 NE5       29.99F HAZE
6HR MIN TEMP:  86; 6HR MAX TEMP:  92;

GRAHAM         CLOUDY    87  63  44 W3        29.98S
6HR MIN TEMP:  86; 6HR MAX TEMP:  94;

MINERAL WELLS  PTCLDY    88  64  44 SE5       29.97F
6HR MIN TEMP:  85; 6HR MAX TEMP:  92;

STEPHENVILLE   PTCLDY    85  66  54 E6        30.04R
6HR MIN TEMP:  83; 6HR MAX TEMP:  91;

COMANCHE         N/A     87  63  44 E3        30.01R
6HR MIN TEMP:  85; 6HR MAX TEMP:  92;

BROWNWOOD      LGT RAIN  86  64  48 E7        30.01R
$$

TXZ143>147-156>162-174-175-170100-
CENTRAL TEXAS

CITY           SKY/WX    TMP DP  RH WIND       PRES   REMARKS
WACO           PTCLDY    86  72  62 NE7       29.98R HX  92
6HR MIN TEMP:  81; 6HR MAX TEMP:  91; 6HR PCP: TRACE;

WACO-TSTC      CLEAR     86  72  62 NE5       29.97S HX  92
WACO-MCGREGOR  PTCLDY    82  72  69 E5        30.00S
6HR MIN TEMP:  79; 6HR MAX TEMP:  93; 6HR PCP:  0.02;

HILLSBORO      CLEAR     86  69  55 E6        29.99S HX  90
6HR MIN TEMP:  77; 6HR MAX TEMP:  89;

CORSICANA      MOCLDY    87  69  54 E7        29.99R HX  91
6HR MIN TEMP:  87; 6HR MAX TEMP:  90;

MEXIA          PTCLDY    85  72  63 E3        29.98R HX  91
6HR MIN TEMP:  83; 6HR MAX TEMP:  90;

HEARNE           N/A     82  73  73 SE12      29.98R
6HR MIN TEMP:  82; 6HR MAX TEMP:  92;

CAMERON        LGT RAIN  83  74  72 NE5       29.96S HX  90
6HR MIN TEMP:  83; 6HR MAX TEMP:  95;

TEMPLE         CLOUDY    86  66  51 NE12      29.99R
6HR MIN TEMP:  86; 6HR MAX TEMP:  95;

KILLEEN        MOCLDY    82  72  69 E7        30.00R
                                      6HR PCP: TRACE;

KILLEEN-SKYLRK MOCLDY    79  70  73 E3        30.00R
6HR MIN TEMP:  79; 6HR MAX TEMP:  91; 6HR PCP:  0.17;

FORT HOOD      MOCLDY    84  73  69 CALM      30.00R HX  90
6HR MIN TEMP:  83; 6HR MAX TEMP:  95;

GATESVILLE     PTCLDY    82  68  61 E6        30.02S
HAMILTON       PTCLDY    86  66  51 E9G17     30.02R
6HR MIN TEMP:  84; 6HR MAX TEMP:  91;

LAMPASAS       MOCLDY    84  71  64 NE9       29.99F
6HR MIN TEMP:  82; 6HR MAX TEMP:  92;

$$

TXZ095>097-106>112-122>126-135>138-148>153-164>167-170100-
EAST TEXAS

CITY           SKY/WX    TMP DP  RH WIND       PRES   REMARKS
PARIS          CLEAR     82  66  57 SE3       30.00S
6HR MIN TEMP:  82; 6HR MAX TEMP:  88;

SULPHUR SPRNGS CLEAR     86  68  55 E5        30.01S
6HR MIN TEMP:  85; 6HR MAX TEMP:  89;

MOUNT PLEASANT CLEAR     82  70  66 CALM      30.00S
6HR MIN TEMP:  82; 6HR MAX TEMP:  88;

GILMER         PTCLDY    86  72  62 NE3       30.00R HX  92
MINEOLA        CLEAR     88  70  55 CALM      29.99R HX  92
TYLER          PTCLDY    87  69  54 NE3       29.99R HX  91
6HR MIN TEMP:  86; 6HR MAX TEMP:  89;

LONGVIEW       PTCLDY    87  68  52 E6        29.97S HX  90
6HR MIN TEMP:  87; 6HR MAX TEMP:  91;

MARSHALL       PTCLDY    89  72  56 CALM      30.00R HX  95
6HR MIN TEMP:  89; 6HR MAX TEMP:  94;

ATHENS         CLEAR     84  70  61 E3        29.98R
PALESTINE      PTCLDY    85  73  65 E3        30.00R HX  92
JACKSONVILLE   MOCLDY    86  70  59 NE3       30.02R HX  90
HENDERSON      MOCLDY    85  71  62 CALM      30.00R HX  90
6HR MIN TEMP:  84; 6HR MAX TEMP:  90;

NACOGDOCHES    MOCLDY    84  72  65 E3        29.98S
6HR MIN TEMP:  84; 6HR MAX TEMP:  91;

LUFKIN         TSTM      77  72  84 SW14      29.99R
6HR MIN TEMP:  77; 6HR MAX TEMP:  95; 6HR PCP:  0.64;

$$

SUPPLEMENTAL OBSERVATIONS (CENTRAL)

CITY           SKY/WX    TMP DP  RH WIND       PRES   REMARKS
PAT MAYSE LAKE   N/A     84  72  65 E2          N/A
GREENVILLE       N/A     84  66  54 E7          N/A
CEDAR HILL       N/A     86  64  48 CALM        N/A
MCGREGOR         N/A     84  72  65 E7G15       N/A
$$

SUPPLEMENTAL OBSERVATIONS (WEST)

CITY           SKY/WX    TMP DP  RH WIND       PRES   REMARKS
MILLERS CREEK    N/A     82  68  61 SW2G10      N/A
HAMBY            N/A     84  64  51 N3          N/A
IVIE RESERVOIR   N/A     88  64  45 E6          N/A
COLORADO BEND    N/A     82  68  61 E6          N/A
$$

SUPPLEMENTAL OBSERVATIONS (EAST)

CITY           SKY/WX    TMP DP  RH WIND       PRES   REMARKS
TEXARKANA        N/A     82  73  74 CALM        N/A
LINDEN           N/A     82  72  69 CALM        N/A
N SABINE NF      N/A     82  72  69 MISG        N/A
$$

SUPPLEMENTAL OBSERVATIONS ARE A COLLECTION OF AUTOMATED INSTRUMENTS


USA.gov is the U.S. government's official web portal to all federal, state and local government web resources and services.